STARLINK-1368, 45540

Orbit data source: Space-Track

STARLINK-1368, 45540 is a payload satellite owned by SpaceX/Seattle (US) in LEO that was launched on Wed, 22 Apr 2020 UTC via an FALCON 9 launch vehicle from the Air Force Eastern Test Range (AFETR). Payload-class satellites include a variety of spacecraft equipped with specific instruments for various scientific and technological missions. These include communications satellites like Starlink; space stations such as the ISS; scientific satellites like the Hubble; Earth observation satellites from companies like Planet Labs, Umbra, and HawkEye 360; GPS; miniature CubeSats for education and research; and military/defense satellites.

Loading next visibility...
Identifier
45540, 2020-025K
Orbit
LEO
Country
Flag of USUS
Related business
Manufacturer
SpaceX/Seattle
Mission
Operational Commercial Communications
Bus & Motor
STARLINK, Unknown motor
Mass
260 kg wet, ~248 kg dry
Launch date (UTC)
2020-04-22 (5 years ago)
Launch vehicle
FALCON 9
Launch site
Air Force Eastern Test Range (AFETR)
Object type
Payload
Rocket body
Debris
Shape & HBR
Box + 1 Pan, 10.1 m
Radar Cross Section
13.562 m², Large (>1 m²)

Expand to show TLE details & history
Last TLE update: 19 hours ago

TLE from 19 hours ago
0 STARLINK-1368
1 45540U 20025K   25287.50954218 -.00001566  00000-0 -86341-4 0  9991
2 45540  53.0529  42.8452 0000994 103.7928 256.3172 15.06380131303056
Epoch: 2025-10-14T12:13Z
TLE epoch observation values (Epoch: 2025-10-14T12:13:44.444Z)
Latitude
0.00002°
Longitude
-163.88692°
Altitude
548.314 km
Speed
7.589 km/s
True Right ascension
02h 51m 22s
True Declination
0° 00' 00"
Sunlit
Object was in full shadow at epoch
Visualization orbit readout
Latitude
Unknown
Longitude
Unknown
Altitude
Unknown
Speed
Unknown
Apparent Right ascension
Unknown
Apparent Declination
Unknown
Sunlit
N/A
Visualization observer readout
Local Sidereal Time
02:17:58
Azimuth
Unknown
Elevation
Unknown
Doppler factor
Unknown
Orbital elements
Apogee altitude
548.232 km
Perigee altitude
546.855 km
Semi-major axis
6,925.68 km
Eccentricity
0.0001
Inclination
53.0529°
RAAN
42.8452°
Arg. of periapsis
103.7928°
True anomaly
256.30613°
Mean anomaly
256.3172°
Eccentric anomaly
256.31167°
Mean motion
3.76573 °/min
Orbital period
95.6 mins
BSTAR
-0.000086341
Loading maneuver chart data...
Computing Atmospheric mass density...

Documentation

Showing up to 5 results
|